{"data":{"norad_id":56529,"epoch":"2026-05-24T10:46:39.567648Z","epoch_age_seconds":125726,"freshness":"FRESH","line1":"1 56529U 23065AC  26144.44906907  .00001678  00000+0  73975-4 0  9995","line2":"2 56529  43.0019 133.5395 0001353 283.9368  76.1332 15.25907201168319","mean_motion":15.25907201,"eccentricity":0.0001353,"inclination_deg":43.0019,"raan_deg":133.5395,"arg_perigee_deg":283.9368,"mean_anomaly_deg":76.1332,"bstar":7.3975e-5,"rev_number":16831,"period_min":94.370090072076,"perigee_km":487.13363662339,"apogee_km":488.9916302442,"semimajor_km":6866.1996334338,"source":"CELESTRAK","updated_at":"2026-05-25T13:38:18.111657Z"}}